Terminal Aerodrome Forecast
Issued by NWS Shreveport, LA

Home | Current Version | Previous Version | Text Only | Print | Product List | Glossary On
Versions: 1 2 3 4 5 6 7 8 9 10 11 12 13 14
000
FTUS44 KSHV 291100
TAFTYR
TAF
KTYR 291121Z 2912/3012 04006KT P6SM BKN100 BKN250
     FM291500 07006KT P6SM SCT120 SCT250
     FM300000 09005KT P6SM SCT250
     FM300600 12005KT P6SM BKN250=

USA.gov is the U.S. government's official web portal to all federal, state and local government web resources and services.